This is the latest recevied weather packets stored in our database for station/object WA4TPR. If no packets are shown the sender has not sent any weather packets the latest 10 day(s).
| Time | Temp. | Humidity | Pressure | Rain* | Wind** | Luminosity | Snow |
|---|---|---|---|---|---|---|---|
| 1778186409 | 33.89° C | 42% | 1017.4 hPa | 0 mm | - | 559 W/m² | - |
| 1778186106 | 33.89° C | 42% | 1017.4 hPa | 0 mm | - | 572 W/m² | - |
| 1778185803 | 33.89° C | 41% | 1017.5 hPa | 0 mm | - | 592 W/m² | - |
| 1778185499 | 33.89° C | 40% | 1017.5 hPa | 0 mm | - | 606 W/m² | - |
| 1778185195 | 34.44° C | 38% | 1017.5 hPa | 0 mm | - | 617 W/m² | - |
| 1778184890 | 34.44° C | 39% | 1017.6 hPa | 0 mm | - | 632 W/m² | - |
| 1778184587 | 33.89° C | 37% | 1017.6 hPa | 0 mm | - | 645 W/m² | - |
| 1778184283 | 33.89° C | 38% | 1017.7 hPa | 0 mm | - | 659 W/m² | - |
| 1778183979 | 33.89° C | 36% | 1017.9 hPa | 0 mm | - | 670 W/m² | - |
| 1778183677 | 33.89° C | 35% | 1017.7 hPa | 0 mm | - | 680 W/m² | - |
| 1778183374 | 33.33° C | 35% | 1018 hPa | 0 mm | - | 693 W/m² | - |
| 1778183070 | 33.33° C | 37% | 1017.7 hPa | 0 mm | - | 704 W/m² | - |
| 1778182766 | 33.33° C | 39% | 1018 hPa | 0 mm | - | 713 W/m² | - |
| 1778182464 | 33.89° C | 39% | 1018 hPa | 0 mm | - | 724 W/m² | - |
| 1778182160 | 33.33° C | 42% | 1018.3 hPa | 0 mm | - | 733 W/m² | - |
| 1778181856 | 33.33° C | 43% | 1018.1 hPa | 0 mm | - | 741 W/m² | - |
| 1778181553 | 33.33° C | 47% | 1018.2 hPa | 0 mm | - | 748 W/m² | - |
| 1778181249 | 33.33° C | 47% | 1018.5 hPa | 0 mm | - | 758 W/m² | - |
| 1778180946 | 33.33° C | 48% | 1018.5 hPa | 0 mm | - | 769 W/m² | - |
| 1778180644 | 33.89° C | 48% | 1018.4 hPa | 0 mm | - | 813 W/m² | - |
| 1778180343 | 33.33° C | 51% | 1018.5 hPa | 0 mm | - | 828 W/m² | - |
| 1778180039 | 32.78° C | 51% | 1018.6 hPa | 0 mm | - | 852 W/m² | - |
| 1778179736 | 32.78° C | 51% | 1019 hPa | 0 mm | - | 298 W/m² | - |
| 1778179434 | 32.78° C | 51% | 1018.9 hPa | 0 mm | - | 870 W/m² | - |
| 1778179131 | 32.78° C | 50% | 1019 hPa | 0 mm | - | 815 W/m² | - |
* Rain latest hour (hover to see other rain measurements)
** Current wind speed in m/s (hover to see current wind gust speed)